Theta_e
307 306 306 306 307 307 308 309 310 310 310 310 310 310 309 309 309 309 308 308 308 307 307 307 307 307 307 307 307 307 307 307 307 307 307 307 306 306 306 306 306 306 306 306 306 306 305 305 305 305 304 304 304 304 304 304 304 303 303 303 303 304 303 303 303 303 304 305 305 305 305 306 305 306 306 306 306 306 306 306 306 306 306 306 305
307 306 306 306 306 306 306 307 309 310 310 310 310 310 310 309 309 308 308 308 308 307 307 307 307 307 307 307 307 307 307 307 307 307 307 307 306 306 306 306 306 306 306 306 306 306 306 306 305 305 304 304 304 304 304 304 304 303 303 303 303 303 303 303 303 303 303 304 304 304 304 305 305 305 305 305 305 305 305 305 306 306 306 306 306
308 307 306 306 306 306 306 306 307 308 309 310 310 310 310 310 309 308 308 308 308 307 307 307 307 307 307 307 307 307 307 307 307 307 307 307 307 307 307 306 306 306 306 306 306 306 306 306 306 306 305 305 304 304 304 304 304 304 304 304 303 303 303 303 303 302 303 303 303 304 304 304 304 304 304 304 304 304 305 305 305 305 306 306 306
309 307 306 306 305 306 305 306 306 307 308 309 310 310 310 309 309 308 308 308 307 307 307 307 307 307 307 307 307 307 307 307 307 307 307 307 307 307 307 307 306 306 306 306 306 306 306 306 306 306 306 305 305 304 304 304 304 304 304 304 304 304 303 303 303 303 303 303 303 303 304 304 304 304 304 304 304 304 304 304 304 304 305 305 305
309 308 307 306 305 305 305 305 305 306 307 308 309 309 309 309 309 308 308 307 307 307 307 307 307 307 307 307 307 307 307 307 307 307 307 308 308 308 308 307 307 307 306 306 306 306 306 306 306 306 306 306 305 305 305 304 304 304 304 304 304 304 304 304 303 303 303 303 303 303 303 304 304 304 304 304 304 304 304 304 304 304 304 304 304
309 309 308 307 306 305 305 305 305 305 306 307 308 309 309 309 308 308 308 308 307 307 307 307 307 306 307 306 306 306 306 307 307 307 308 308 308 308 308 308 307 307 307 307 307 306 306 306 306 306 306 306 305 305 305 305 305 304 304 304 304 304 304 304 304 304 304 303 304 303 303 304 304 304 304 304 304 304 304 304 304 304 304 304 304
309 309 309 308 307 306 305 305 305 305 305 306 307 308 308 308 308 308 308 308 307 307 307 307 307 307 306 306 306 306 306 306 307 307 308 308 308 308 308 308 307 307 307 307 307 307 307 307 307 307 306 306 306 306 306 305 305 305 305 305 305 304 304 304 304 304 304 304 304 304 304 303 303 304 304 304 304 304 304 304 304 304 304 304 304
309 309 309 309 308 306 305 305 305 305 305 305 306 307 307 308 308 308 308 308 308 308 308 308 308 307 307 306 306 306 306 306 306 307 307 307 307 307 308 307 307 307 307 307 307 307 307 307 307 307 307 306 306 306 306 306 306 306 305 305 305 305 305 305 304 304 304 304 304 304 304 304 304 304 304 304 304 304 304 304 304 304 304 304 304
309 309 309 309 308 307 305 304 305 304 305 305 305 306 306 307 307 307 308 308 308 308 308 308 308 307 307 307 306 306 306 306 306 306 306 306 306 306 307 307 307 307 307 307 307 307 307 307 307 307 307 306 307 306 306 306 306 306 306 305 305 305 305 305 305 305 304 304 304 304 304 304 304 304 304 304 304 304 304 304 303 304 303 303 304
309 308 309 309 308 306 305 304 304 304 305 305 305 305 306 306 306 307 307 307 307 307 307 307 307 307 307 306 306 306 306 306 306 306 306 306 306 306 307 307 307 307 307 307 307 307 307 307 307 307 306 306 306 306 306 306 306 306 305 305 305 305 305 305 304 304 304 304 304 304 304 304 304 304 304 304 304 304 304 304 303 304 304 303 303
308 308 309 309 308 306 305 304 304 305 305 305 305 305 305 306 306 306 306 306 306 306 306 306 306 305 305 305 305 305 305 305 305 306 306 306 306 306 307 307 307 307 307 307 307 307 307 307 306 306 306 306 306 306 306 305 305 305 305 305 305 305 304 304 304 304 304 304 304 304 303 304 304 304 304 304 304 303 303 303 303 303 303 303 303
308 308 308 308 307 306 304 304 304 304 305 305 305 305 305 305 305 306 305 305 305 305 305 305 305 305 305 305 305 305 305 305 305 305 306 306 306 306 306 306 307 307 307 306 307 306 306 306 306 306 306 306 305 305 305 305 305 305 305 305 305 305 304 304 304 304 304 304 304 303 304 304 304 304 304 303 303 303 303 302 302 302 302 302 302
308 308 308 308 307 305 304 304 304 304 304 305 305 305 305 305 305 304 305 305 305 305 305 305 305 305 305 305 305 305 305 305 305 306 306 306 306 306 306 306 306 306 306 306 306 306 306 306 306 305 305 305 305 305 305 305 305 304 304 304 304 304 304 304 304 304 304 304 303 304 304 304 304 304 304 303 302 302 302 301 301 301 301 301 301
308 308 307 307 306 304 304 304 304 304 304 304 304 304 304 304 304 304 305 305 305 305 305 305 304 304 304 305 305 305 305 306 306 306 306 306 306 306 306 306 306 306 306 306 306 306 306 305 305 305 305 304 304 304 304 304 304 303 303 303 303 303 303 303 303 303 303 303 303 303 303 303 303 303 303 303 302 301 301 301 300 300 300 300 300
308 307 307 307 306 304 303 303 303 304 304 304 304 304 304 304 304 305 305 305 304 304 304 304 304 305 305 305 305 305 305 306 306 306 306 306 306 306 306 306 306 305 305 305 305 305 304 304 304 303 303 303 303 303 303 302 302 302 302 302 301 301 301 301 301 302 302 302 302 302 302 302 302 303 303 303 302 302 301 300 300 299 299 299 299
307 307 307 307 305 303 303 303 303 303 303 303 304 304 304 304 304 304 304 304 304 304 304 304 304 305 305 305 305 305 305 305 306 306 306 306 306 305 305 304 304 304 303 303 303 303 302 302 302 302 302 302 302 302 302 302 301 301 301 300 300 300 300 300 300 300 300 300 301 300 300 300 301 301 301 301 301 301 301 300 300 299 299 299 298
307 307 307 306 304 303 303 303 303 303 303 303 304 304 304 304 303 303 303 303 304 304 304 304 304 304 305 305 305 305 305 305 304 304 304 304 304 303 303 303 302 302 302 302 301 301 301 301 301 301 301 301 301 301 301 301 300 300 300 300 300 300 300 299 299 299 299 299 299 299 299 299 299 299 299 299 299 299 299 299 299 299 299 299 298
306 306 307 306 304 302 302 302 303 303 303 304 304 304 303 303 303 303 303 303 303 303 303 304 304 304 304 304 304 304 304 304 304 303 303 303 302 302 302 302 302 301 301 301 301 301 301 301 301 301 301 301 301 301 301 301 300 300 300 299 299 299 299 299 298 298 298 298 298 298 298 298 297 297 297 297 297 297 297 298 298 298 298 298 298
306 306 305 304 302 302 302 302 303 303 304 304 303 303 303 303 303 303 303 303 303 303 303 304 303 304 304 304 304 304 303 303 303 303 303 302 302 302 301 301 301 301 301 301 301 301 301 301 301 301 301 301 301 301 300 300 300 299 299 298 298 298 298 298 298 298 298 297 297 297 297 297 297 296 296 295 295 295 295 296 296 297 297 297 297
305 304 303 302 301 301 302 302 303 303 303 303 303 303 303 302 302 302 302 302 302 303 303 303 303 303 303 303 303 303 303 302 302 302 301 301 301 301 301 301 301 301 301 301 301 301 301 301 300 300 300 300 300 299 299 298 298 297 297 297 297 297 297 297 297 297 297 297 297 296 296 296 295 295 294 294 293 293 294 294 295 295 295 295 295
303 303 302 301 301 301 302 302 303 303 303 303 303 302 302 302 302 302 302 302 302 302 302 302 302 302 302 302 302 301 301 301 301 301 300 300 300 300 300 300 300 300 300 299 299 299 299 299 299 299 298 298 298 297 297 296 296 296 295 295 295 295 296 296 296 296 296 296 296 296 295 295 294 293 292 292 292 292 292 292 293 293 294 294 293
302 301 301 300 301 301 301 302 302 302 302 302 302 302 302 301 301 301 301 301 301 301 302 301 301 301 301 301 300 300 300 300 299 299 299 299 299 299 299 299 298 298 298 298 297 297 297 297 296 296 296 296 295 295 295 294 294 294 294 294 294 294 294 295 295 295 295 295 295 295 294 294 293 292 291 290 290 290 290 290 291 291 292 292 292
301 300 300 300 300 300 301 301 301 301 301 301 301 301 301 301 301 301 301 301 301 301 300 300 300 300 300 299 299 299 298 298 298 298 298 298 297 297 297 297 297 297 296 296 296 296 295 295 295 295 295 294 294 294 294 294 293 293 293 293 293 293 293 293 293 293 293 294 293 293 293 292 291 291 290 289 289 289 289 289 289 289 289 290 290
300 300 299 299 300 300 300 300 300 300 301 300 300 300 300 300 300 300 300 299 299 299 299 299 299 298 298 298 298 297 297 297 296 296 296 296 296 296 296 295 295 295 295 295 295 295 294 294 294 294 294 293 293 293 293 293 293 293 293 293 292 292 292 292 291 291 291 291 291 291 290 290 290 289 289 288 288 288 288 288 288 288 288 288 288
299 299 299 299 299 299 299 300 299 300 300 299 299 299 299 299 299 299 298 298 298 298 298 297 297 297 297 297 296 296 296 295 295 295 295 294 294 294 294 294 294 294 294 294 293 293 293 293 293 293 293 292 293 292 292 292 292 292 292 292 292 291 291 290 290 290 289 289 289 289 289 288 288 288 287 287 287 287 287 287 287 287 287 287 287
298 298 298 298 298 298 298 299 299 299 299 298 298 298 298 298 298 298 297 297 297 296 296 296 296 296 295 295 295 295 294 294 294 294 293 293 293 293 293 292 292 292 292 292 292 292 292 292 292 291 291 291 291 291 291 291 291 291 291 291 290 290 290 289 289 288 288 288 288 287 287 287 287 286 286 286 286 286 286 286 286 286 286 286 286
296 296 297 297 297 297 297 297 298 297 297 297 297 297 296 296 296 296 295 295 295 295 294 294 294 294 294 294 293 293 293 293 293 292 292 292 291 291 291 291 290 290 291 290 290 290 290 290 290 290 289 289 289 289 289 289 289 289 288 288 288 288 287 287 287 287 287 287 286 286 286 286 285 285 285 285 285 285 285 285 285 285 285 285 285
295 295 295 295 295 295 295 295 296 296 295 295 295 294 294 294 293 293 293 293 293 293 293 293 293 293 293 292 292 292 291 291 291 291 290 290 289 289 289 289 289 289 289 288 288 288 288 288 288 288 287 287 287 287 286 286 286 286 286 286 285 285 285 285 285 285 285 285 284 284 284 284 283 283 283 283 283 284 284 284 284 284 284 284 284
293 294 294 293 293 293 293 293 293 293 293 293 293 292 292 291 292 292 291 291 291 291 291 291 291 291 290 290 290 290 289 289 289 289 288 288 288 288 288 288 287 287 287 287 286 286 286 286 286 285 285 285 284 284 284 284 284 283 283 283 283 283 283 283 283 283 283 283 283 282 282 282 282 282 282 282 282 282 282 282 282 282 283 283 283
292 292 292 292 292 292 291 291 291 291 291 291 292 291 291 290 290 290 290 290 289 289 289 289 289 289 288 288 288 288 288 287 287 287 286 286 286 286 286 285 285 285 284 284 284 284 283 283 283 283 282 282 282 282 282 282 282 282 281 281 281 281 282 282 281 281 281 281 281 281 281 281 281 281 281 281 281 281 281 281 281 281 281 281 281
291 291 290 290 291 290 290 290 290 290 290 290 290 290 290 290 289 288 288 288 288 287 287 287 287 287 287 287 286 286 286 285 285 284 284 284 283 283 283 283 283 282 282 281 281 281 280 280 280 280 279 279 279 279 279 279 279 279 279 279 279 279 279 279 279 279 279 280 279 279 279 279 279 279 279 279 279 280 279 279 279 279 279 279 280
290 290 290 289 289 289 289 289 289 289 288 288 288 288 288 288 288 286 286 286 286 286 286 285 285 285 285 285 284 284 283 283 282 282 282 282 281 281 281 281 280 280 280 279 279 279 279 278 278 278 278 278 277 277 277 277 277 277 277 277 277 277 277 277 277 277 277 277 278 277 277 278 277 278 278 278 278 278 278 278 278 278 278 278 278
288 288 289 288 288 288 287 287 287 287 287 286 286 286 286 286 286 286 285 285 284 284 284 284 283 283 283 282 282 282 281 281 280 280 280 279 279 279 279 278 278 278 278 278 278 278 277 277 277 277 277 277 276 276 276 276 276 276 276 276 276 276 275 275 276 276 275 276 276 276 276 276 276 276 276 276 276 276 276 276 276 276 276 276 277
287 287 287 287 287 286 286 286 285 285 285 285 284 284 284 284 284 284 284 283 283 282 282 281 281 281 280 280 280 279 279 278 278 277 277 277 277 277 277 277 277 277 277 277 276 276 276 276 276 276 276 275 275 275 275 275 274 274 274 274 274 274 274 274 274 274 274 274 274 274 274 274 274 274 274 274 274 274 274 274 274 274 275 275 275
285 285 285 285 285 285 285 284 284 284 284 283 283 283 282 282 282 282 281 281 281 280 280 279 279 278 278 278 277 277 277 276 276 276 276 276 276 276 276 276 276 276 276 275 275 275 275 274 274 274 274 274 274 274 273 273 273 273 272 272 272 272 272 272 272 272 272 272 272 272 272 272 271 271 271 271 271 272 272 272 272 272 272 273 273
283 283 283 283 283 283 283 283 282 282 282 282 281 281 281 280 280 280 279 279 278 278 277 277 276 276 276 275 275 275 275 275 275 275 275 275 275 275 275 275 274 274 274 274 274 273 273 273 273 273 273 273 272 272 272 272 272 271 271 271 271 271 271 271 271 270 270 270 270 270 270 270 270 270 269 269 269 269 269 270 270 270 270 270 271
281 281 281 281 281 281 281 281 280 280 280 279 279 278 278 278 277 277 276 276 276 275 275 275 275 275 275 275 275 275 275 275 275 275 275 275 275 274 274 274 274 273 273 273 273 272 272 272 272 272 272 271 271 271 271 271 271 271 270 270 270 270 270 270 270 270 269 269 269 269 269 269 268 268 268 268 268 268 268 268 268 268 269 269 269
279 279 279 278 278 278 278 278 277 277 276 276 276 275 275 275 275 275 275 274 274 274 274 274 274 274 275 275 275 275 275 275 275 274 274 274 274 274 274 273 273 273 272 272 272 271 271 271 271 271 271 271 270 270 270 270 270 270 270 270 270 269 269 269 269 269 269 269 268 268 268 268 268 268 268 268 268 268 268 268 268 268 268 268 268
278 277 276 276 275 275 275 275 275 274 274 274 274 274 274 274 274 274 274 274 274 274 274 274 274 274 274 274 274 274 274 273 273 273 273 273 273 272 272 272 272 272 271 271 271 271 270 270 270 270 270 270 270 270 270 270 270 270 269 269 269 269 269 269 269 268 268 268 268 268 267 267 267 267 267 267 267 267 267 267 267 267 267 267 267
276 275 275 274 274 274 274 274 274 274 274 274 274 274 274 274 274 274 274 274 274 274 274 274 274 273 273 273 273 273 272 272 272 272 272 271 271 271 271 271 271 271 271 270 270 270 270 270 269 269 269 269 269 269 269 269 269 269 269 269 269 269 268 268 268 268 268 268 267 267 267 267 266 266 266 266 266 266 266 266 266 266 266 266 266
274 274 274 274 274 274 274 274 274 274 274 274 274 274 274 274 274 273 273 273 273 273 273 272 272 272 272 272 272 272 271 271 271 271 271 271 270 270 270 270 270 270 270 270 270 270 269 269 269 269 269 269 269 269 269 269 268 268 268 268 268 268 268 267 267 267 267 266 266 266 266 266 266 265 265 265 265 265 265 265 265 265 264 264 265
273 273 273 273 273 273 273 273 273 273 273 273 273 273 273 273 272 272 272 272 271 271 271 271 271 271 271 271 271 270 270 270 270 270 270 270 270 269 269 269 269 269 269 269 269 269 269 269 269 269 269 268 268 268 268 268 268 267 267 267 267 267 267 266 266 266 265 265 265 265 265 265 265 265 265 265 264 264 264 264 264 264 263 263 263
272 272 272 272 272 272 272 272 272 272 272 272 272 271 271 271 271 271 271 270 270 270 270 270 270 270 270 270 270 270 270 269 269 269 269 269 269 269 269 268 268 268 268 268 268 268 268 268 268 268 268 268 267 267 267 267 267 266 266 266 266 266 266 266 265 265 265 265 265 264 264 264 264 264 264 264 263 263 263 263 263 263 262 262 262
272 272 272 272 272 271 271 271 271 271 271 271 271 270 270 270 270 270 270 270 270 270 270 270 269 269 269 269 269 269 269 269 269 269 269 269 269 269 268 268 268 268 268 268 268 268 268 268 268 268 267 267 267 267 266 266 266 266 266 266 265 265 265 265 265 265 265 264 264 264 264 263 263 263 263 263 262 262 262 262 262 262 262 262 262
271 271 271 271 271 270 270 270 270 270 270 270 270 270 270 270 270 270 270 270 270 270 269 269 269 269 269 269 268 268 268 268 268 268 268 268 268 268 268 268 268 268 268 268 267 267 267 267 267 267 267 267 266 266 266 266 266 265 265 265 265 265 264 264 264 264 264 264 263 263 263 263 263 262 262 262 262 261 261 261 261 262 262 262 262
270 270 270 270 270 270 270 270 270 270 270 270 270 270 270 269 269 269 269 269 269 269 269 269 269 268 268 268 268 268 268 268 268 268 268 268 268 268 268 268 268 268 268 267 267 267 267 267 267 267 267 267 266 266 266 265 265 265 265 265 264 264 264 264 263 263 263 263 263 263 262 262 262 262 261 261 261 261 261 261 261 261 261 261 261
269 269 269 269 269 269 269 269 269 269 269 269 269 269 269 269 269 269 269 268 268 268 268 268 268 268 268 268 268 268 268 268 268 268 268 268 268 268 267 267 267 267 267 267 267 267 267 266 266 266 266 266 266 266 265 265 265 265 264 264 264 264 263 263 263 263 262 262 262 262 262 262 262 261 261 261 261 261 260 260 260 261 261 261 261
269 269 269 269 269 269 269 269 269 269 269 269 268 268 268 268 268 268 268 268 268 268 268 268 268 268 268 268 268 268 268 268 268 268 267 267 267 267 267 267 267 267 267 267 266 266 266 266 266 266 266 266 266 265 265 265 264 264 264 264 263 263 263 263 262 262 262 262 262 261 261 261 261 261 261 261 260 260 260 260 260 260 260 260 260
268 268 268 268 268 268 268 268 268 268 268 268 268 268 268 268 268 268 268 268 268 268 268 267 267 267 267 267 267 267 267 267 267 267 267 267 267 267 267 267 267 267 267 266 266 266 266 266 266 266 265 265 265 265 265 265 264 264 263 263 263 263 262 262 262 262 262 261 261 261 261 261 261 260 260 260 260 260 260 260 260 259 259 259 259
268 268 268 268 268 268 268 268 268 268 268 268 268 268 268 268 268 268 268 268 267 267 267 267 267 267 267 267 267 267 267 267 267 267 267 267 267 267 267 267 266 266 266 266 266 266 265 265 265 265 265 265 265 265 264 264 264 263 263 263 263 262 262 262 262 261 261 261 261 261 260 260 260 260 260 260 259 259 259 259 259 259 258 258 258
268 268 268 268 268 268 268 268 268 268 268 268 268 268 268 268 268 268 267 268 267 267 267 267 267 267 267 267 267 267 267 267 267 267 267 267 267 266 266 266 266 266 266 265 265 265 265 265 265 265 265 264 264 264 264 264 263 263 263 263 262 262 262 262 262 261 261 261 261 260 260 260 260 259 259 259 259 259 259 258 258 258 258 258 258
Wind_Speed
14 14 16 19 20 21 21 21 21 21 20 20 21 21 21 21 20 19 20 20 21 21 21 21 21 21 21 22 22 22 22 22 23 23 24 25 25 25 25 26 27 26 25 26 26 27 27 26 26 24 23 23 23 23 23 23 23 23 23 24 24 24 24 26 30 32 29 25 25 24 22 23 22 21 19 18 18 19 19 20 20 21 22 22 22
15 15 17 19 20 21 22 22 22 22 22 22 22 22 22 22 21 21 21 21 21 22 21 21 21 21 22 22 22 22 22 22 22 23 23 24 24 24 24 25 26 26 26 26 26 27 27 28 27 26 25 25 24 24 24 24 24 24 24 24 24 24 25 25 28 32 32 28 26 26 25 25 25 23 22 21 21 21 22 22 22 23 23 23 23
15 17 18 19 20 21 22 23 23 23 23 23 22 22 22 22 22 23 22 21 22 22 21 21 21 21 21 21 22 22 22 22 22 23 23 23 23 23 24 24 25 26 26 26 25 26 27 28 28 27 26 26 25 25 25 24 25 25 25 25 25 25 25 25 27 30 32 30 27 27 27 26 26 25 25 24 23 23 23 22 23 25 25 25 26
16 19 20 21 21 22 23 23 24 25 24 24 23 22 22 22 23 23 23 22 22 22 21 21 21 21 21 22 22 22 22 23 23 24 24 23 23 23 23 24 25 25 25 24 24 24 26 27 27 26 25 26 26 25 25 25 25 25 25 25 25 25 25 25 27 28 31 32 29 27 26 27 27 27 26 26 25 25 25 24 24 25 26 27 28
17 19 21 22 23 24 23 24 25 26 25 24 23 22 22 22 22 22 23 23 22 22 22 22 22 23 23 23 23 23 23 23 24 24 24 23 23 23 23 24 24 24 24 23 23 23 24 25 25 24 24 25 26 25 25 25 24 24 25 25 25 25 24 25 26 27 29 31 31 28 26 27 28 28 28 28 27 27 27 27 27 28 28 28 28
19 20 22 24 25 25 25 25 25 25 25 24 23 22 22 22 21 21 22 22 22 23 23 23 23 23 23 23 23 23 23 23 24 24 24 23 23 23 23 23 24 24 24 23 22 22 23 23 23 22 23 24 24 24 24 24 24 24 24 25 24 24 24 24 24 25 27 29 31 30 28 27 27 28 29 29 30 30 29 30 30 30 30 30 29
22 21 23 25 26 26 25 25 24 23 24 24 24 23 22 22 21 21 21 21 22 22 22 22 22 22 22 23 23 23 23 24 24 24 24 23 23 23 23 23 23 24 23 23 22 22 22 22 22 21 22 23 23 22 22 22 23 23 24 24 24 24 24 24 24 25 26 28 30 31 30 29 28 29 29 30 31 32 32 33 33 32 31 32 32
25 22 23 27 28 26 25 23 22 22 22 24 26 25 24 23 21 21 21 20 20 20 20 20 21 22 23 23 24 24 24 24 24 24 24 24 24 24 23 23 23 23 23 23 22 22 22 21 22 22 22 22 22 22 22 22 23 24 24 24 25 25 25 25 25 26 27 28 30 31 31 31 31 30 31 31 33 34 33 34 35 34 33 33 33
26 24 25 28 28 26 24 23 22 21 22 24 26 27 25 24 23 22 21 21 20 21 21 22 22 23 23 23 23 23 23 23 23 23 23 23 24 24 24 23 23 23 23 23 23 22 22 22 22 22 22 22 22 22 23 23 24 25 25 24 25 26 26 26 27 28 28 29 30 32 32 33 34 34 34 33 33 33 32 33 36 36 35 36 35
27 26 27 27 27 26 24 23 22 22 23 24 26 27 27 26 25 24 24 23 23 23 23 23 23 22 22 21 21 21 21 21 21 21 22 22 23 23 23 23 23 23 23 23 23 22 22 22 22 22 22 22 22 23 23 23 23 24 24 24 24 25 25 26 27 27 28 29 30 30 32 34 35 34 35 34 33 32 32 33 35 35 35 38 39
28 27 28 27 26 26 25 24 24 23 24 24 26 27 27 27 27 26 26 25 24 23 22 21 20 20 19 19 19 19 19 19 19 20 21 21 22 23 23 23 23 23 23 22 22 22 21 21 21 22 22 23 23 23 23 23 23 23 23 24 24 24 25 25 26 26 26 28 28 28 30 33 33 33 33 33 33 33 32 32 33 33 34 37 39
28 28 28 27 27 26 26 26 25 25 25 26 27 27 28 28 27 26 25 24 22 21 20 19 19 18 18 18 17 18 18 19 19 20 20 20 21 21 22 22 22 22 22 22 21 21 21 21 22 22 22 22 22 22 22 22 22 22 22 23 23 24 24 24 25 25 26 27 28 28 30 31 32 31 32 32 32 32 31 31 31 32 32 34 36
28 28 28 28 27 26 27 27 26 26 26 27 27 28 27 27 25 24 23 22 22 21 20 19 18 18 18 17 17 17 17 17 18 18 19 19 19 20 20 20 20 20 20 20 20 20 20 20 20 20 20 19 19 20 20 20 20 20 20 20 21 21 21 22 22 23 25 27 28 29 29 30 31 31 30 30 30 30 31 31 31 31 32 33 35
27 29 29 27 27 27 28 28 27 27 27 27 28 27 26 26 25 24 24 23 22 21 20 20 19 18 18 18 17 17 16 15 15 15 16 16 17 17 17 18 18 18 18 18 18 18 18 18 18 18 18 18 18 18 18 18 18 19 18 18 18 19 19 19 20 22 24 26 28 28 27 28 31 31 30 31 32 31 32 32 32 32 33 34 35
27 29 28 27 26 27 28 27 27 27 27 28 28 27 27 27 26 26 25 24 23 22 21 21 20 20 19 19 18 17 16 16 15 15 15 16 16 16 16 16 17 17 17 17 16 16 16 16 16 17 17 17 18 18 18 19 19 19 19 18 18 18 18 18 19 21 23 24 26 27 26 28 30 31 31 32 34 34 34 34 34 34 35 37 38
28 28 28 27 27 27 27 27 27 27 27 27 27 27 27 27 27 27 26 25 24 23 23 22 21 21 20 20 19 18 18 17 17 17 17 17 17 17 17 17 17 17 17 17 17 17 17 17 18 18 19 19 20 20 20 20 20 20 20 19 19 19 18 18 20 21 22 23 25 26 26 27 28 30 31 31 33 34 34 35 36 36 37 39 41
29 28 27 27 27 28 28 28 27 27 28 28 27 27 27 26 26 26 25 25 24 24 23 23 22 22 22 21 21 21 20 20 20 20 19 19 19 19 19 19 19 19 19 19 19 20 20 20 20 20 21 21 21 22 22 22 22 22 22 22 22 21 20 20 21 22 23 23 25 26 27 27 28 28 29 29 31 31 32 35 36 35 37 39 40
29 28 28 28 28 28 28 28 28 28 29 29 28 27 26 26 25 24 24 24 24 24 24 24 24 24 23 23 23 22 22 22 22 21 21 21 21 21 21 20 20 20 20 21 21 21 21 21 21 21 22 23 23 23 23 23 23 23 23 24 24 24 22 22 22 23 23 24 25 26 27 28 28 28 27 28 28 28 30 33 33 32 35 37 38
28 27 27 27 27 27 28 28 28 29 30 29 28 27 27 26 26 25 25 25 25 25 25 24 24 24 23 23 22 22 21 21 21 20 20 20 20 20 20 20 20 20 21 21 21 21 21 21 21 22 22 23 23 24 24 23 23 23 23 24 25 24 23 23 24 24 24 25 26 26 27 27 28 28 27 26 26 26 28 31 31 31 34 36 36
27 26 26 26 26 26 27 27 28 29 29 29 29 28 27 27 26 25 25 24 24 23 23 22 22 22 22 21 21 20 20 20 19 19 19 18 18 18 18 18 19 19 20 20 20 21 21 21 21 21 22 22 23 23 22 23 22 22 22 23 24 24 23 24 24 25 26 27 28 29 29 29 28 28 27 25 25 24 25 27 29 30 32 34 34
24 24 24 24 24 25 25 26 27 28 28 27 27 26 25 24 24 23 22 21 21 21 20 20 20 20 20 20 19 19 18 18 18 18 17 18 17 17 17 17 17 18 18 18 18 18 19 19 20 20 20 20 20 20 21 21 21 21 22 23 24 24 25 25 25 26 28 29 30 31 31 30 29 27 26 25 24 23 24 25 27 28 29 31 32
22 22 22 21 22 22 23 24 24 25 25 24 24 23 22 22 21 20 20 19 19 19 19 19 18 18 18 18 17 17 17 17 17 17 17 17 17 17 17 17 17 17 17 17 17 17 17 18 18 18 18 18 18 19 19 20 21 21 22 24 25 25 26 26 27 28 30 31 32 32 32 31 30 29 27 26 25 24 25 25 26 27 29 30 31
20 20 19 19 19 19 20 20 21 21 21 21 21 21 20 20 19 19 18 18 18 18 18 17 17 17 17 17 17 17 16 16 16 16 16 16 16 16 16 17 17 17 17 17 17 17 18 18 18 19 18 19 19 20 21 21 22 23 24 25 26 26 27 28 28 29 30 31 32 32 32 31 31 30 29 28 27 26 26 26 26 27 29 30 31
19 18 17 16 16 17 17 17 18 18 18 18 18 19 19 18 18 18 18 17 17 17 17 17 17 17 17 17 17 17 17 17 16 16 16 16 16 16 16 16 17 17 17 18 18 18 18 19 19 19 19 20 20 21 22 23 24 25 26 26 27 27 28 28 28 28 29 29 29 29 29 29 29 28 28 27 27 26 26 25 25 25 26 28 29
17 17 16 15 16 15 15 16 16 16 17 17 17 17 18 18 18 18 18 17 17 17 18 18 18 18 18 18 17 17 17 17 16 16 16 16 16 16 16 16 16 16 17 17 18 18 18 19 19 20 21 21 22 23 24 25 26 27 28 28 28 29 28 28 28 27 27 26 26 26 27 27 27 26 26 26 26 26 26 26 26 26 27 28 29
15 15 15 16 16 16 16 16 17 17 17 18 18 18 18 18 18 19 19 18 18 18 18 18 18 18 17 17 17 16 16 16 16 16 16 16 16 16 16 16 16 16 17 18 18 18 19 20 20 21 22 22 23 24 24 25 26 27 27 28 28 28 28 28 27 26 26 25 25 25 26 26 26 26 26 27 27 27 28 28 29 29 29 30 31
16 16 17 17 17 17 17 18 19 19 19 19 19 19 19 19 19 19 18 18 18 18 17 17 17 17 17 16 16 16 16 16 16 16 16 16 15 15 16 16 16 16 18 18 18 18 19 20 20 21 22 22 22 23 23 23 23 24 24 24 24 24 24 24 24 24 24 24 24 25 25 25 25 26 26 27 27 27 28 29 29 30 30 31 32
16 17 18 18 19 19 19 19 20 20 21 20 20 20 19 18 18 17 17 16 16 16 16 16 16 16 16 16 16 16 15 15 15 15 15 15 14 15 17 16 16 16 17 18 17 17 18 18 19 19 19 19 19 19 19 19 19 19 20 20 20 20 20 20 21 21 22 23 23 24 24 24 24 25 25 25 25 25 26 27 27 28 28 29 30
17 17 17 17 17 17 18 18 17 18 19 19 19 18 18 17 16 16 16 15 14 14 14 15 15 15 15 14 14 14 14 13 13 13 14 14 15 16 17 16 16 16 16 16 16 16 16 16 15 15 15 14 14 15 15 15 15 15 16 17 17 18 18 19 19 20 20 21 21 21 22 22 22 22 23 23 22 22 23 23 24 25 25 26 27
17 17 17 17 16 16 16 16 15 14 14 15 16 16 16 16 15 15 15 15 15 14 13 13 13 13 13 12 12 12 12 11 11 13 13 14 15 16 15 14 14 14 14 13 13 12 12 11 11 11 11 11 11 11 11 12 13 13 14 14 15 16 16 17 17 18 18 19 19 20 21 22 21 21 22 22 21 20 20 21 21 22 23 23 24
17 17 17 16 16 16 15 15 14 14 13 13 13 14 15 15 15 14 13 13 13 13 12 11 11 11 11 11 11 10 10 10 11 11 12 12 13 14 13 11 11 12 11 10 9 8 8 8 8 8 8 9 9 9 9 10 10 11 12 13 13 14 15 16 16 17 17 18 19 20 21 22 22 22 22 22 22 21 21 21 21 21 22 22 23
16 16 16 16 15 14 14 14 13 13 13 13 12 12 12 13 13 13 12 11 11 10 10 9 9 9 9 10 10 9 8 9 9 10 10 10 11 12 10 9 8 9 9 8 8 8 8 8 8 9 9 9 9 9 10 10 11 12 12 13 14 15 16 16 17 18 18 19 20 21 22 22 23 23 23 23 24 24 23 23 22 22 23 23 23
14 14 15 15 14 14 14 14 13 13 12 12 11 11 10 10 10 10 10 10 9 9 8 8 8 8 8 8 8 7 7 7 7 7 7 7 8 8 8 7 7 7 8 9 9 9 9 9 10 10 10 11 11 12 12 12 13 13 14 14 16 17 17 18 19 19 20 21 22 22 23 24 24 25 25 25 25 26 26 25 25 25 25 25 25
13 13 14 14 14 13 13 13 13 12 12 11 11 11 10 9 9 8 9 9 8 8 7 7 7 7 7 7 6 6 5 5 5 4 4 5 5 6 7 7 7 8 9 9 10 10 10 10 11 11 12 12 12 13 13 14 14 14 15 15 16 17 18 19 20 20 21 22 22 23 24 25 25 26 26 26 26 26 27 27 27 27 27 27 28
13 13 13 13 13 13 13 13 12 12 12 12 11 10 10 9 8 8 8 8 8 7 7 6 6 5 5 5 4 4 3 3 3 3 4 5 6 7 8 9 9 9 10 10 11 11 12 12 12 12 13 14 14 14 14 15 15 16 16 17 17 17 18 19 20 20 21 21 22 23 23 24 24 24 25 25 25 25 26 26 26 26 27 27 28
11 11 12 12 12 12 12 12 11 11 11 10 10 9 9 8 8 8 7 7 7 6 6 5 5 4 3 2 2 2 2 3 4 5 6 7 8 9 10 10 11 11 11 12 12 13 13 14 14 14 15 15 15 16 16 16 17 18 18 19 19 19 20 20 21 21 22 22 22 23 23 23 23 23 24 24 24 23 24 24 25 25 25 26 26
9 9 9 9 9 9 9 10 10 10 9 9 9 9 8 8 7 7 6 6 5 5 4 3 3 1 1 2 3 4 4 5 7 8 8 9 10 11 12 12 13 13 14 14 15 15 15 16 16 16 16 17 17 17 18 18 19 20 20 21 21 21 22 23 23 23 23 23 23 23 23 23 23 23 24 24 24 23 24 24 24 25 24 25 25
9 9 9 9 8 8 8 9 9 9 9 9 9 8 8 7 7 6 5 4 3 3 2 1 1 2 3 4 5 6 7 8 9 10 11 12 12 13 14 14 15 16 16 16 17 17 17 18 18 17 18 18 19 19 20 20 21 22 22 22 22 23 23 24 24 24 25 25 25 25 25 25 25 25 25 26 26 26 26 26 26 26 25 25 25
10 10 10 10 10 10 10 10 10 10 9 9 8 7 7 6 5 4 3 2 2 1 2 2 3 4 5 6 7 8 8 10 11 11 12 13 13 14 15 16 16 17 17 18 18 19 19 19 19 19 19 20 20 21 21 22 23 23 24 24 24 24 24 25 25 25 26 27 27 27 26 26 26 26 26 27 27 27 27 27 26 26 26 27 26
10 10 11 11 10 10 10 9 9 8 7 7 6 5 5 4 3 2 2 1 2 3 4 4 5 6 7 8 9 9 10 11 12 12 12 13 13 14 15 15 16 17 17 18 18 19 20 20 20 20 21 21 21 21 22 23 24 24 25 25 26 26 26 26 26 27 27 28 28 28 27 27 27 27 27 26 26 27 28 28 27 27 26 27 27
10 10 11 11 10 9 9 8 7 7 6 5 4 4 3 2 2 2 2 3 4 5 6 6 7 8 8 10 10 11 11 12 13 13 13 13 14 14 14 15 16 16 17 17 18 19 20 20 20 21 21 21 22 22 23 23 24 25 25 26 26 26 26 26 26 27 27 28 28 28 28 28 28 28 28 27 27 27 27 27 28 27 27 27 27
10 10 10 10 9 9 8 7 6 6 5 4 3 3 2 2 2 3 3 4 5 5 6 7 8 9 9 10 11 12 12 13 13 14 14 14 14 14 15 16 17 17 17 18 18 19 20 21 21 21 22 22 22 23 23 24 24 25 25 26 26 26 26 26 26 26 27 28 28 28 28 28 28 29 29 28 28 28 27 27 27 27 26 27 26
9 9 9 8 7 7 6 5 5 4 3 2 2 2 2 2 3 4 4 5 5 6 6 7 9 9 10 11 12 13 13 14 15 15 15 15 16 16 16 17 18 19 19 19 19 20 21 22 22 22 22 22 23 23 24 24 24 25 25 26 26 26 26 26 26 27 27 28 28 28 28 29 29 29 29 28 28 28 28 27 26 26 25 25 25
8 7 7 6 5 5 4 3 3 2 1 1 1 2 3 3 4 4 5 6 7 7 8 9 10 10 11 12 13 14 15 15 16 17 17 17 17 17 18 19 20 20 21 21 21 22 23 23 23 23 23 23 23 24 24 25 25 25 26 26 27 27 26 26 26 27 27 28 28 28 28 28 28 28 28 28 27 28 27 26 26 25 25 25 25
6 5 4 4 3 3 3 2 2 1 1 2 2 3 4 5 5 6 7 7 8 9 9 10 11 12 13 13 14 15 16 17 18 18 19 19 19 19 20 20 21 22 22 22 23 24 24 25 25 25 25 24 24 25 26 26 26 26 27 27 27 27 26 26 26 27 27 28 28 28 28 28 28 27 27 27 26 27 27 26 26 26 25 25 25
4 3 3 2 2 2 1 1 1 2 2 3 4 5 6 7 7 8 8 9 10 10 11 12 12 13 14 15 15 16 17 18 19 19 20 20 21 21 22 22 23 24 24 24 25 25 26 26 27 27 27 26 26 26 26 27 27 27 28 27 28 27 27 26 27 27 27 28 28 28 29 29 28 27 27 27 26 27 27 26 26 26 26 26 27
2 2 1 1 1 1 2 2 3 4 4 5 6 7 8 8 9 9 10 11 11 12 12 13 13 14 15 16 17 18 19 20 20 21 21 22 22 23 24 24 25 25 26 26 26 27 27 28 28 28 29 28 28 27 27 27 28 28 29 28 28 28 27 27 27 27 27 28 29 29 29 29 29 28 27 27 27 27 27 27 27 27 27 28 29
1 1 2 2 3 4 4 5 5 6 7 7 8 9 9 10 10 11 11 12 13 13 14 14 15 16 17 18 19 20 21 22 23 23 23 24 24 25 26 26 27 27 28 28 28 28 29 29 30 30 30 30 30 29 29 28 28 29 29 29 28 28 28 28 28 28 28 29 29 29 30 30 30 29 29 28 28 28 28 28 29 29 29 30 30
3 4 4 4 5 5 6 7 7 8 8 9 10 11 11 11 12 12 13 13 14 14 15 16 17 18 19 20 21 21 22 24 24 25 25 26 27 27 28 28 29 29 30 30 30 30 31 31 31 32 32 32 31 31 31 30 30 29 29 29 29 29 28 28 28 28 28 29 29 29 30 30 30 30 30 29 29 29 29 30 30 30 31 32 32
5 6 6 6 6 7 7 8 8 9 10 11 11 12 12 13 13 14 14 15 15 16 17 18 18 19 20 21 22 23 24 25 26 27 28 28 29 29 30 31 31 32 32 33 33 32 32 32 32 33 33 33 33 32 32 32 31 30 30 29 29 29 29 29 29 29 29 29 29 29 30 30 30 31 30 30 30 30 30 31 31 31 32 32 33
7 7 7 8 8 8 9 9 10 11 12 12 13 14 14 15 15 15 16 17 17 17 18 19 20 21 22 23 24 26 27 28 28 29 30 30 30 31 32 32 33 33 33 34 34 33 33 33 33 33 33 34 34 33 33 33 32 31 30 30 29 29 29 29 29 29 29 29 29 30 30 30 30 31 31 30 31 31 31 31 31 32 32 32 33
Wind_Direction
297 284 275 268 263 258 254 251 249 248 246 243 240 236 232 228 224 219 217 214 212 211 210 208 208 208 208 210 212 214 218 220 223 227 230 232 233 234 235 238 241 243 243 245 246 247 248 249 250 250 249 250 252 253 254 255 256 257 257 258 258 259 262 263 266 270 272 272 274 276 275 274 274 272 271 271 271 272 272 271 272 272 270 269 266
301 286 276 269 264 258 253 249 247 246 245 243 241 238 235 231 227 223 220 216 215 215 213 211 210 210 210 211 212 214 217 219 222 225 228 230 231 232 233 235 238 240 241 242 243 244 246 247 248 249 249 250 251 252 254 254 255 256 257 258 258 259 261 264 269 273 275 275 275 277 276 276 274 273 272 271 269 268 267 267 267 268 268 269 269
299 288 279 273 268 261 255 250 246 244 243 243 242 239 237 234 230 227 223 219 219 218 216 215 214 214 214 214 214 216 217 219 221 224 227 229 230 231 232 233 236 237 238 240 241 243 245 245 246 247 250 251 252 253 254 255 255 256 258 258 259 260 261 264 268 272 277 278 277 276 278 278 277 275 275 273 271 269 266 264 263 263 264 265 265
293 289 284 278 273 265 259 254 249 246 244 242 242 240 237 235 232 228 225 221 220 219 218 217 217 217 217 217 217 217 218 219 221 223 226 227 229 229 230 231 233 235 237 238 240 242 244 245 245 247 249 251 252 254 255 255 256 257 259 259 260 261 262 264 266 270 275 277 276 275 276 277 277 277 277 276 274 272 269 265 263 262 262 261 261
287 288 286 281 276 270 264 258 253 249 245 243 241 240 237 234 231 228 225 222 220 218 217 216 216 217 217 218 218 218 219 219 221 223 225 226 228 229 230 231 233 235 236 238 239 241 243 245 246 247 248 248 250 252 254 256 258 259 259 260 260 261 262 263 264 266 270 273 274 273 271 271 272 275 277 277 275 272 270 267 265 264 263 262 261
280 284 285 283 279 274 267 262 257 252 247 244 241 240 238 234 230 226 223 221 219 217 217 216 217 218 219 219 220 221 222 222 224 225 226 227 229 230 231 232 233 234 236 237 238 240 241 243 245 245 246 247 249 252 255 256 258 258 258 260 261 261 261 261 261 263 265 268 271 273 271 268 268 269 272 274 275 273 270 267 265 264 266 266 264
273 279 283 283 281 276 270 264 260 255 249 244 240 238 237 233 228 224 221 220 218 218 218 219 220 221 222 223 224 224 225 226 227 227 228 229 229 230 231 231 232 234 235 236 237 238 239 241 243 244 245 248 249 251 252 252 253 254 255 257 259 260 260 261 261 262 263 265 267 270 272 271 268 266 266 269 271 272 271 271 269 267 268 269 267
267 276 279 280 281 279 273 263 257 252 245 240 237 235 234 232 228 223 221 220 219 218 219 221 222 223 224 225 226 227 228 229 230 231 231 232 232 232 232 232 233 234 235 236 237 238 239 240 242 244 246 247 248 249 249 250 250 252 252 254 256 258 260 261 262 263 264 265 266 268 270 272 271 270 268 267 268 269 272 276 276 273 272 272 270
263 272 275 276 279 279 271 258 251 245 238 234 233 233 232 231 228 225 223 222 221 221 222 223 225 227 228 230 231 233 234 234 234 234 234 235 234 234 233 232 233 233 234 236 237 238 239 240 242 244 245 246 247 248 249 250 251 252 253 254 255 257 259 261 262 264 265 265 266 268 269 271 272 274 274 272 273 274 275 276 276 275 275 276 273
262 269 271 272 275 274 264 251 245 239 233 230 229 230 230 228 227 226 224 224 223 224 225 226 228 230 231 233 234 235 237 236 236 234 233 233 232 232 232 232 232 233 234 235 237 238 239 240 242 243 244 246 247 248 250 251 252 254 255 256 257 258 260 261 263 264 266 267 269 270 271 271 272 274 276 277 279 279 278 277 277 277 276 276 273
263 265 266 267 269 267 256 246 240 234 229 227 226 226 226 225 225 224 224 225 225 225 225 225 225 226 228 230 232 234 236 237 237 235 233 232 231 230 231 232 232 234 235 236 238 240 241 243 244 244 245 247 248 249 251 252 254 255 257 258 259 260 261 262 264 265 267 269 271 272 272 274 275 276 278 280 281 281 282 282 282 280 278 277 276
260 256 258 261 263 261 250 240 236 230 226 225 223 223 223 223 223 223 223 223 221 219 218 216 217 219 221 225 228 230 233 235 235 234 232 231 230 230 231 233 234 236 238 240 241 243 244 245 246 247 248 250 251 253 255 256 258 259 260 262 264 265 266 267 269 271 272 272 273 274 276 279 280 281 282 283 284 284 285 284 283 282 280 279 279
253 249 252 257 260 256 245 237 232 227 224 223 222 221 221 220 220 219 217 214 211 210 210 210 212 214 216 219 222 224 227 229 230 229 228 227 227 228 230 232 235 237 239 241 242 243 244 246 247 249 251 252 254 256 257 259 260 262 263 264 266 269 271 273 275 276 276 276 276 278 281 282 282 283 284 284 284 284 284 283 283 283 283 281 280
245 245 249 255 258 252 242 235 230 225 223 221 219 217 215 214 212 209 208 206 205 205 206 206 207 208 210 212 213 215 217 219 221 221 222 222 223 225 227 229 232 234 236 237 238 239 240 242 244 247 248 249 250 251 252 254 255 256 258 259 262 264 267 271 274 275 275 276 277 281 285 285 284 286 285 283 282 281 281 281 282 282 283 282 282
239 242 248 255 254 247 239 234 228 224 221 218 215 212 209 207 206 204 203 203 203 203 203 203 204 204 205 206 207 208 208 208 210 211 212 214 216 218 220 221 224 225 227 229 232 233 236 237 239 241 241 242 243 243 244 245 246 249 250 252 255 258 263 268 270 270 271 273 275 279 282 283 283 284 284 282 281 281 280 280 280 280 281 281 281
236 240 247 253 250 242 235 231 226 222 219 216 213 210 207 205 204 203 202 201 201 202 202 203 204 204 205 205 205 206 205 204 205 205 204 206 206 207 209 211 213 216 219 222 226 228 231 232 234 236 237 238 240 241 243 244 246 248 250 251 254 258 262 267 269 270 273 275 277 279 280 280 279 279 279 279 279 279 280 278 277 278 278 278 279
235 239 245 249 245 237 231 228 224 220 217 214 211 209 207 206 204 203 203 202 202 203 204 204 205 206 207 207 207 207 206 204 204 203 203 203 204 205 207 209 212 216 219 222 225 228 230 232 234 236 238 239 241 242 244 245 247 249 251 253 256 258 261 264 267 271 276 278 280 282 282 282 280 278 276 274 274 274 274 274 274 276 276 276 277
235 239 243 244 239 232 227 224 220 216 214 211 209 209 207 206 206 205 205 206 205 205 206 207 206 206 207 209 209 209 208 206 205 206 206 207 209 211 213 216 219 222 225 228 231 233 235 236 238 240 242 243 245 246 247 249 250 251 253 254 256 258 260 262 265 270 274 277 280 282 284 284 283 281 277 274 271 269 268 270 272 273 273 273 275
234 237 239 236 231 225 222 219 215 213 211 210 208 208 207 207 207 207 208 208 208 207 207 207 207 207 207 210 211 212 213 212 211 211 212 214 217 219 221 224 227 230 233 235 236 238 240 241 242 243 245 247 248 249 251 253 254 256 257 259 260 262 263 265 269 273 276 280 283 284 285 285 283 282 280 276 272 268 267 269 270 270 270 271 274
231 232 231 227 222 218 215 213 211 210 210 209 208 208 208 208 209 210 210 210 210 210 209 209 210 210 210 212 214 215 217 218 217 218 219 220 222 224 227 229 232 234 236 238 239 241 242 243 244 244 246 248 250 252 253 255 258 260 263 265 267 268 269 272 275 279 281 284 286 287 286 286 284 283 281 278 275 269 266 266 266 266 268 270 271
228 227 224 220 216 214 211 210 209 209 208 209 209 209 209 210 211 212 213 214 214 213 212 212 213 213 212 213 215 216 218 220 221 222 223 225 227 229 231 233 236 238 240 241 243 244 245 246 247 247 249 251 253 257 259 261 264 266 268 270 272 275 278 280 282 284 285 286 287 286 286 285 284 283 281 278 275 270 266 263 262 262 264 266 269
224 222 219 216 213 211 209 208 208 208 209 209 210 210 211 211 212 213 213 214 214 213 213 213 213 213 213 213 215 218 220 222 224 226 229 231 233 235 237 240 241 243 244 245 246 247 248 249 250 251 252 254 257 260 263 267 270 273 274 277 280 282 284 285 285 285 286 286 285 284 284 283 282 281 280 277 274 270 266 263 261 259 260 262 264
224 221 217 215 213 210 209 208 208 208 209 210 210 211 210 210 209 209 209 210 210 209 210 211 212 213 214 215 217 220 223 226 229 231 234 235 237 238 240 242 244 245 246 247 249 250 252 253 255 256 257 258 260 263 267 271 275 278 280 282 284 286 286 287 287 286 286 285 284 284 283 283 283 282 281 279 276 273 271 268 266 264 262 261 261
223 221 218 217 215 211 209 206 205 206 206 207 209 209 207 206 205 204 204 205 206 206 207 209 211 213 215 217 219 222 226 229 232 235 237 239 241 242 242 243 245 246 248 250 252 255 257 259 262 264 266 268 270 272 275 277 280 282 284 285 287 287 288 287 287 286 285 284 284 284 283 283 283 283 282 281 280 279 278 277 275 272 269 266 264
220 217 215 214 212 210 208 204 203 203 201 201 203 203 203 202 201 200 201 202 204 205 206 208 211 214 216 218 221 224 229 234 237 240 244 247 249 251 251 252 253 255 256 258 259 261 264 267 270 273 275 277 279 280 282 283 284 285 286 287 287 287 286 285 285 284 284 283 282 282 281 280 279 279 279 279 279 279 280 280 278 277 276 276 274
218 212 210 207 203 203 203 201 200 199 197 197 197 196 197 198 198 199 199 200 202 204 205 207 210 214 217 220 223 227 231 236 242 246 251 254 257 260 261 263 265 266 267 269 272 273 275 277 278 280 282 283 284 285 285 285 285 285 285 284 284 283 282 281 281 281 281 281 281 280 279 278 277 276 276 276 277 278 279 280 280 280 280 281 281
213 206 203 201 198 197 197 196 196 194 193 193 192 191 192 193 195 196 196 198 201 201 203 207 210 215 220 221 225 229 233 238 244 248 252 255 259 263 266 268 272 274 275 278 281 282 283 283 284 285 285 285 286 285 285 284 284 283 282 281 280 279 278 278 279 280 281 282 282 281 280 280 280 279 279 280 281 283 284 284 285 285 284 284 284
210 204 199 195 193 191 190 191 192 190 188 187 187 187 187 188 190 191 190 194 201 203 205 209 211 216 222 224 227 231 235 240 246 251 255 259 263 266 269 272 276 278 279 281 283 283 283 284 284 284 284 284 285 284 284 283 282 281 280 280 279 280 280 280 281 282 282 282 282 282 282 282 283 283 284 284 285 286 286 287 287 287 287 287 286
205 203 199 194 191 189 187 185 187 188 187 186 184 182 182 184 188 189 186 188 196 202 206 209 211 216 222 225 230 236 239 244 251 257 263 268 269 271 273 277 280 280 279 280 282 282 282 282 282 282 282 281 281 282 283 283 283 282 281 281 281 282 282 282 282 282 281 281 281 281 281 282 282 284 285 285 286 286 286 285 285 285 285 285 285
199 198 195 193 191 190 188 186 186 187 189 190 189 187 183 183 187 190 190 190 193 198 203 207 211 217 224 229 235 241 247 253 258 263 269 274 276 277 280 284 286 285 284 284 283 282 282 281 280 279 280 278 277 278 279 279 279 279 279 279 279 279 280 280 280 279 278 277 278 279 280 281 282 283 284 284 284 283 283 283 283 283 283 283 283
200 197 193 193 191 189 190 189 188 188 188 189 193 193 190 186 184 185 189 191 192 196 201 205 212 219 228 237 244 250 257 263 268 272 276 280 282 284 288 292 292 292 293 295 293 292 292 291 290 288 288 286 285 283 280 278 277 277 277 278 277 277 277 278 278 276 276 276 277 279 280 282 284 284 284 284 283 282 281 280 281 281 281 281 281
200 198 195 194 191 188 189 188 187 189 188 187 189 193 194 192 186 180 182 186 191 198 203 209 218 227 237 247 255 261 266 269 273 277 280 281 282 285 290 293 293 294 298 299 301 302 301 299 297 295 293 293 292 290 288 286 284 283 282 281 281 279 279 279 279 279 280 280 280 281 282 284 285 286 286 286 285 285 284 283 283 283 282 280 280
200 198 197 194 190 188 188 186 186 188 187 188 189 190 195 200 199 193 191 194 200 210 216 222 229 235 241 249 255 259 261 262 264 266 268 270 275 282 289 294 295 296 298 299 299 299 297 294 293 292 291 291 291 291 290 288 287 285 283 281 280 280 279 279 280 280 281 281 282 283 283 283 284 285 285 286 287 287 287 286 285 284 283 282 282
196 196 195 193 191 190 187 185 186 186 186 189 192 194 198 205 207 207 206 204 207 214 218 222 227 232 234 238 241 242 241 241 241 244 252 262 274 285 292 297 299 298 298 299 298 297 295 294 292 290 289 288 288 287 287 286 285 283 281 280 279 279 279 280 280 280 280 281 281 281 281 282 282 282 282 282 283 283 283 284 283 283 283 283 283
191 191 189 188 190 190 188 188 189 189 191 194 196 199 203 204 203 205 206 205 206 207 206 207 209 212 215 216 217 219 225 235 249 266 281 289 296 299 300 303 305 304 303 303 301 299 298 295 293 292 291 291 290 289 289 289 288 287 287 286 285 285 284 285 285 284 284 284 283 283 283 283 283 283 282 282 282 282 282 282 282 282 282 283 283
189 190 187 185 188 189 188 189 189 189 193 194 194 197 200 198 197 197 192 189 189 183 179 179 178 182 192 206 227 251 271 289 296 301 303 303 304 303 303 306 307 307 307 305 303 301 300 297 297 296 296 296 297 297 297 297 297 297 297 296 296 296 295 295 294 293 292 292 290 289 289 288 288 287 287 286 286 285 284 284 283 283 284 284 285
187 190 187 184 187 188 187 187 184 183 184 182 180 181 179 173 171 168 160 159 158 152 153 157 158 177 240 281 294 297 302 305 304 304 302 301 301 302 303 306 308 308 308 307 304 303 303 301 301 301 300 301 301 301 301 301 301 300 301 301 301 301 301 300 300 299 298 297 296 295 294 294 293 292 291 291 290 289 288 287 287 286 286 285 285
180 179 174 172 172 170 170 168 162 158 157 154 150 150 148 144 145 143 142 146 145 142 160 193 239 278 282 289 297 300 300 300 300 300 300 300 302 303 304 306 307 306 306 305 304 304 303 302 302 302 302 302 302 302 302 301 301 301 301 300 300 300 300 300 299 299 298 298 297 296 295 295 294 294 293 293 293 292 292 291 291 290 288 286 285
170 163 156 153 149 147 148 146 142 140 140 138 138 140 141 140 140 141 146 154 161 198 253 270 283 291 293 295 298 300 299 296 296 297 297 299 301 301 300 301 301 301 301 301 301 301 301 301 301 301 302 301 301 300 300 299 298 297 297 296 296 295 295 295 295 294 294 293 293 293 293 293 293 293 293 293 292 292 292 292 291 291 290 288 287
158 152 147 145 143 144 143 141 138 139 138 136 136 137 138 142 146 155 175 209 242 260 273 280 283 288 293 292 291 292 292 291 291 290 291 292 292 292 292 292 292 293 294 295 295 296 296 297 298 298 298 298 297 296 295 294 293 293 292 292 292 291 291 291 290 290 290 290 290 290 291 291 291 291 290 291 291 291 291 291 291 290 289 288 288
146 146 145 142 142 142 141 139 141 140 138 140 144 144 153 173 198 223 239 256 265 271 279 284 284 286 288 287 287 288 286 285 285 285 285 287 287 288 289 289 289 290 290 291 292 292 292 293 294 295 295 295 294 294 293 292 291 291 290 290 290 290 289 289 289 288 288 288 288 289 290 290 290 290 289 289 289 289 289 289 289 289 289 288 287
142 143 142 139 140 141 141 142 144 145 148 157 163 169 190 214 236 253 260 271 278 280 285 289 290 291 290 288 289 290 289 288 289 289 289 291 291 292 293 292 291 291 291 290 291 291 291 292 294 294 294 294 293 293 292 292 291 290 290 289 289 288 288 288 287 287 287 286 287 288 288 288 288 288 288 288 288 287 287 286 286 287 287 286 286
141 141 139 138 139 142 142 141 143 147 155 168 183 210 231 243 259 269 273 280 283 285 289 291 291 292 293 292 292 293 293 293 293 293 293 294 294 294 295 293 292 292 292 292 292 291 291 291 292 292 292 292 291 290 290 290 289 289 289 289 288 288 288 288 287 286 286 286 286 286 287 287 287 287 287 287 287 286 286 285 285 284 284 284 285
137 137 137 136 135 136 139 140 144 151 171 198 228 252 264 270 275 280 283 287 289 290 292 292 291 292 293 293 293 294 294 293 293 293 294 294 294 295 294 293 292 292 293 293 293 292 291 291 291 290 290 290 290 289 289 288 288 289 288 288 288 288 289 289 288 287 286 286 285 285 285 285 285 285 286 286 286 286 286 285 284 283 283 283 284
136 135 135 138 139 143 149 152 158 189 233 256 270 278 281 283 285 288 290 291 293 294 295 294 294 294 294 293 293 293 292 292 292 293 293 294 294 294 293 292 291 291 291 292 292 292 292 292 291 290 290 289 288 288 288 288 288 288 287 287 288 288 288 288 288 287 287 287 286 286 286 285 286 286 287 287 287 286 286 286 285 284 284 284 284
141 142 145 152 155 163 179 203 226 250 268 279 283 287 289 290 292 293 294 295 296 295 294 294 295 295 295 295 294 293 293 293 293 294 294 295 294 294 293 292 291 291 291 291 290 289 289 289 288 288 287 287 286 286 287 287 287 287 287 287 288 288 289 289 288 288 289 289 289 288 288 288 288 288 287 287 286 286 285 285 284 284 284 285 286
144 148 167 201 242 262 271 277 280 283 286 287 287 289 290 291 292 293 294 294 295 295 296 296 296 296 296 296 296 296 296 296 296 297 297 296 296 295 293 292 291 290 289 288 287 286 286 286 286 286 287 286 286 286 286 286 287 287 288 289 289 289 290 289 289 289 289 289 288 288 288 288 288 288 287 287 286 285 285 284 283 283 283 283 284
219 236 251 262 268 273 277 282 285 284 285 286 285 286 286 286 288 291 292 293 295 297 298 298 298 298 298 298 298 298 298 297 297 298 297 296 295 294 292 291 291 290 289 288 288 287 287 286 286 286 285 285 286 286 285 285 286 286 287 288 289 288 288 288 287 287 287 286 286 287 287 288 288 287 287 286 285 284 284 283 282 282 282 282 283
251 252 254 260 264 269 274 278 280 281 283 283 283 284 286 287 289 291 292 293 296 298 298 298 298 298 298 298 297 297 296 296 296 295 295 294 294 294 293 292 291 291 290 289 288 287 286 285 285 284 284 284 284 284 284 284 284 284 285 286 286 286 286 285 285 284 284 284 285 286 286 286 287 286 286 286 285 284 283 283 283 283 283 283 284
252 254 257 262 265 270 275 279 282 284 285 286 287 289 290 291 293 294 294 295 296 296 296 296 296 296 296 296 297 296 295 295 296 295 295 295 294 293 292 291 290 288 287 286 285 284 284 283 283 283 283 283 283 282 282 282 281 281 282 282 282 283 283 283 282 283 283 284 285 285 285 286 286 286 286 286 285 284 284 284 284 284 284 284 285
259 262 266 270 275 280 284 287 290 291 291 292 293 294 293 294 294 294 293 294 295 295 296 296 297 298 298 298 298 298 297 297 296 295 295 294 292 290 289 288 287 285 284 284 283 283 282 281 281 281 281 280 280 280 279 279 279 280 280 280 280 281 281 282 282 283 284 284 285 285 285 285 285 286 286 286 285 285 284 284 284 284 285 285 286